Date String (YYYY-MM-DD hh:mm:ss) UTC,Instrument flags,Ambient pressure (hPa),Sample flow (lpm),Bypass flow (lpm),Sample temperature (°C),Ambient temperature (°C),ASC tube jacket temperature (°C),LED temperature (°C),Box temperature (°C),Sample RH (%),Span deviation,Mass concentration (μg/m³),Mass concentration (μg/m³),Mass concentration (μg/m³)
DateTimeUTC,F1_M11,P_M11,Q1_M11,Q2_M11,T1_M11,T2_M11,T3_M11,T4_M11,T5_M11,U1_M11,ZSPAN_M11,X0_M11,X2_M11,X1_M11
2022-07-10 12:00:00,,0830.5,5.00,0.00,29.8,28.7,00.0,38.6,31.7,14.4,0000.0,0008.70,0003.38,0002.73
2022-07-10 12:01:00,,0830.5,5.00,0.00,29.9,28.7,00.0,38.6,31.8,14.4,0000.0,0008.67,0003.35,0002.74
2022-07-10 12:02:00,,0830.5,5.00,0.00,29.9,28.8,00.0,38.6,31.8,14.4,0000.0,0008.19,0003.35,0002.74
2022-07-10 12:03:00,,0830.5,4.98,0.00,29.9,28.8,00.0,38.6,31.8,14.5,0000.0,0007.81,0003.38,0002.74
2022-07-10 12:04:00,,0830.5,5.01,0.00,29.9,28.4,00.0,38.6,31.8,14.5,0000.0,0007.83,0003.37,0002.75
2022-07-10 12:05:00,,0830.5,4.99,0.00,29.9,27.8,00.0,38.5,31.7,14.5,0000.0,0007.79,0003.36,0002.75
2022-07-10 12:06:00,,0830.5,4.99,0.00,29.8,27.7,00.0,38.5,31.6,14.6,0000.0,0007.68,0003.32,0002.76
2022-07-10 12:07:00,,0830.5,5.01,0.00,29.8,27.7,00.0,38.5,31.6,14.6,0000.0,0007.60,0003.34,0002.79
2022-07-10 12:08:00,,0830.5,5.00,0.00,29.8,27.8,00.0,38.5,31.5,14.5,0000.0,0007.52,0003.36,0002.80
2022-07-10 12:09:00,,0830.6,5.00,0.00,29.7,28.0,00.0,38.5,31.5,14.5,0000.0,0006.81,0003.37,0002.81
2022-07-10 12:10:00,,0830.6,5.01,0.00,29.8,28.1,00.0,38.5,31.5,14.4,0000.0,0005.98,0003.37,0002.81
2022-07-10 12:11:00,,0830.6,5.00,0.00,29.8,28.2,00.0,38.5,31.6,14.4,0000.0,0007.01,0003.38,0002.79
2022-07-10 12:12:00,,0830.6,4.99,0.00,29.8,28.3,00.0,38.5,31.6,14.5,0000.0,0007.75,0003.40,0002.79
2022-07-10 12:13:00,,0830.6,5.01,0.00,29.8,28.4,00.0,38.5,31.6,14.6,0000.0,0007.89,0003.39,0002.78
2022-07-10 12:14:00,,0830.6,5.00,0.00,29.8,28.5,00.0,38.6,31.7,14.6,0000.0,0008.09,0003.40,0002.79
2022-07-10 12:15:00,,0830.6,4.99,0.00,29.8,28.6,00.0,38.6,31.7,14.6,0000.0,0008.26,0003.42,0002.80
2022-07-10 12:16:00,,0830.6,5.00,0.00,29.9,28.7,00.0,38.6,31.7,14.5,0000.0,0008.43,0003.43,0002.78
2022-07-10 12:17:00,,0830.6,4.99,0.00,29.9,28.7,00.0,38.6,31.7,14.6,0000.0,0008.74,0003.41,0002.76
2022-07-10 12:18:00,,0830.6,5.01,0.00,29.9,28.8,00.0,38.6,31.8,14.7,0000.0,0008.70,0003.39,0002.75
2022-07-10 12:19:00,,0830.6,4.99,0.00,29.9,28.7,00.0,38.6,31.8,14.7,0000.0,0008.54,0003.39,0002.74
2022-07-10 12:20:00,,0830.6,5.00,0.00,29.9,27.7,00.0,38.6,31.6,14.8,0000.0,0008.37,0003.37,0002.73
2022-07-10 12:21:00,,0830.6,5.01,0.00,29.8,27.1,00.0,38.5,31.5,14.9,0000.0,0008.27,0003.32,0002.70
2022-07-10 12:22:00,,0830.6,4.99,0.00,29.8,27.1,00.0,38.5,31.4,14.9,0000.0,0007.91,0003.29,0002.72
2022-07-10 12:23:00,,0830.6,5.00,0.00,29.7,27.2,00.0,38.5,31.4,15.0,0000.0,0007.30,0003.27,0002.72
2022-07-10 12:24:00,,0830.6,5.00,0.00,29.6,27.4,00.0,38.4,31.3,14.9,0000.0,0007.08,0003.27,0002.74
2022-07-10 12:25:00,,0830.6,5.00,0.00,29.6,27.5,00.0,38.4,31.4,14.7,0000.0,0007.71,0003.25,0002.72
2022-07-10 12:26:00,,0830.6,5.02,0.00,29.6,27.7,00.0,38.4,31.4,14.6,0000.0,0007.42,0003.21,0002.69
2022-07-10 12:27:00,,0830.6,5.02,0.00,29.6,27.9,00.0,38.4,31.4,14.5,0000.0,0007.16,0003.18,0002.69
2022-07-10 12:28:00,,0830.6,5.00,0.00,29.6,28.0,00.0,38.4,31.4,14.4,0000.0,0007.02,0003.20,0002.70
2022-07-10 12:29:00,,0830.6,4.99,0.00,29.6,28.1,00.0,38.4,31.5,14.3,0000.0,0007.77,0003.22,0002.69
2022-07-10 12:30:00,,0830.6,5.00,0.00,29.7,28.3,00.0,38.4,31.5,14.3,0000.0,0007.83,0003.22,0002.68
2022-07-10 12:31:00,,0830.6,5.00,0.00,29.7,28.4,00.0,38.4,31.6,14.4,0000.0,0007.82,0003.21,0002.68
2022-07-10 12:32:00,,0830.6,5.00,0.00,29.7,28.5,00.0,38.5,31.6,14.4,0000.0,0007.94,0003.24,0002.69
2022-07-10 12:33:00,,0830.6,4.99,0.00,29.7,28.5,00.0,38.5,31.6,14.4,0000.0,0007.95,0003.27,0002.69
2022-07-10 12:34:00,,0830.6,5.00,0.00,29.7,28.6,00.0,38.5,31.7,14.4,0000.0,0007.76,0003.28,0002.67
2022-07-10 12:35:00,,0830.6,5.00,0.00,29.8,28.7,00.0,38.5,31.7,14.4,0000.0,0007.83,0003.26,0002.64
2022-07-10 12:36:00,,0830.6,5.01,0.00,29.8,28.7,00.0,38.5,31.7,14.5,0000.0,0007.16,0003.25,0002.63
2022-07-10 12:37:00,,0830.6,5.00,0.00,29.8,28.8,00.0,38.5,31.7,14.5,0000.0,0007.09,0003.28,0002.64
2022-07-10 12:38:00,,0830.6,4.99,0.00,29.9,28.9,00.0,38.5,31.8,14.5,0000.0,0007.16,0003.25,0002.61
2022-07-10 12:39:00,,0830.7,5.00,0.00,29.9,28.6,00.0,38.5,31.8,14.5,0000.0,0006.82,0003.23,0002.60
2022-07-10 12:40:00,,0830.6,5.00,0.00,29.9,27.8,00.0,38.5,31.7,14.8,0000.0,0005.61,0003.21,0002.60
2022-07-10 12:41:00,,0830.7,5.01,0.00,29.8,27.4,00.0,38.5,31.5,15.0,0000.0,0005.60,0003.22,0002.60
2022-07-10 12:42:00,,0830.7,5.00,0.00,29.7,27.4,00.0,38.5,31.5,15.2,0000.0,0005.44,0003.19,0002.57
2022-07-10 12:43:00,,0830.7,5.00,0.00,29.7,27.5,00.0,38.4,31.4,15.2,0000.0,0005.43,0003.18,0002.56
2022-07-10 12:44:00,,0830.7,4.99,0.00,29.7,27.6,00.0,38.4,31.4,15.4,0000.0,0005.38,0003.17,0002.55
2022-07-10 12:45:00,,0830.8,4.99,0.00,29.7,27.8,00.0,38.4,31.4,15.0,0000.0,0005.43,0003.15,0002.56
2022-07-10 12:46:00,,0830.7,4.99,0.00,29.7,27.9,00.0,38.4,31.4,15.1,0000.0,0005.55,0003.17,0002.59
2022-07-10 12:47:00,,0830.8,5.01,0.00,29.7,28.1,00.0,38.4,31.4,15.3,0000.0,0005.71,0003.21,0002.61
2022-07-10 12:48:00,,0830.7,5.01,0.00,29.7,28.2,00.0,38.5,31.5,15.4,0000.0,0005.90,0003.22,0002.63
2022-07-10 12:49:00,,0830.7,5.00,0.00,29.7,28.3,00.0,38.5,31.5,15.4,0000.0,0005.86,0003.24,0002.64
2022-07-10 12:50:00,,0830.7,5.00,0.00,29.7,28.4,00.0,38.5,31.6,15.2,0000.0,0006.27,0003.25,0002.66
2022-07-10 12:51:00,,0830.7,5.01,0.00,29.7,28.5,00.0,38.5,31.6,15.1,0000.0,0006.59,0003.25,0002.66
2022-07-10 12:52:00,,0830.8,5.01,0.00,29.8,28.6,00.0,38.5,31.7,15.2,0000.0,0006.88,0003.29,0002.68
2022-07-10 12:53:00,,0830.8,4.98,0.00,29.8,28.7,00.0,38.5,31.7,15.1,0000.0,0007.12,0003.32,0002.69
2022-07-10 12:54:00,,0830.8,5.00,0.00,29.8,28.7,00.0,38.5,31.7,15.1,0000.0,0007.21,0003.34,0002.71
2022-07-10 12:55:00,,0830.8,5.01,0.00,29.8,28.8,00.0,38.6,31.7,14.9,0000.0,0007.33,0003.35,0002.73
2022-07-10 12:56:00,,0830.8,5.00,0.00,29.9,28.8,00.0,38.6,31.8,15.0,0000.0,0007.82,0003.37,0002.73
2022-07-10 12:57:00,,0830.8,4.99,0.00,29.9,28.7,00.0,38.6,31.8,15.0,0000.0,0008.11,0003.36,0002.72
2022-07-10 12:58:00,,0830.8,5.01,0.00,29.9,27.9,00.0,38.5,31.7,14.8,0000.0,0008.30,0003.35,0002.72
2022-07-10 12:59:00,,0830.8,5.01,0.00,29.8,27.5,00.0,38.5,31.6,15.0,0000.0,0008.76,0003.36,0002.71
